Radiation Dose at Monitoring Post of Fukushima Daini Nuclear Power Station
Date,Time,MP-1(microSv/h),MP-2(microSv/h),MP-3(microSv/h),MP-4(microSv/h),MP-5(microSv/h),MP-6(microSv/h),MP-7(microSv/h),Wind Direction,Wind Velocity(m/s),Rain
2016/06/26,00:00,0.403,0.243,0.420,0.382,0.372,0.197,0.168,north-northwest,5.9,Yes
2016/06/26,00:10,0.406,0.243,0.416,0.383,0.370,0.196,0.169,north-northwest,5.4,No
2016/06/26,00:20,0.402,0.244,0.420,0.380,0.372,0.198,0.168,north-northwest,4.5,Yes
2016/06/26,00:30,0.402,0.241,0.416,0.381,0.368,0.195,0.167,north-northwest,6.7,No
2016/06/26,00:40,0.403,0.241,0.417,0.378,0.365,0.196,0.166,west-northwest,5.9,No
2016/06/26,00:50,0.401,0.241,0.416,0.382,0.369,0.195,0.167,west-northwest,9.9,No
2016/06/26,01:00,0.403,0.241,0.415,0.379,0.365,0.195,0.165,west-northwest,11.2,No
2016/06/26,01:10,0.402,0.241,0.418,0.382,0.369,0.195,0.166,west-northwest,12.2,No
2016/06/26,01:20,0.401,0.239,0.414,0.379,0.367,0.194,0.165,west-northwest,10.4,No
2016/06/26,01:30,0.403,0.241,0.418,0.380,0.366,0.195,0.166,west-northwest,11.5,No
2016/06/26,01:40,0.400,0.241,0.418,0.381,0.369,0.193,0.167,west-northwest,8.1,No
2016/06/26,01:50,0.404,0.240,0.415,0.379,0.365,0.194,0.165,west-northwest,8.4,No
2016/06/26,02:00,0.403,0.241,0.418,0.383,0.368,0.194,0.166,west-northwest,8.1,No
2016/06/26,02:10,0.400,0.240,0.413,0.380,0.366,0.193,0.166,northwest,7.7,No
2016/06/26,02:20,0.404,0.241,0.417,0.380,0.365,0.194,0.165,northwest,5.3,No
2016/06/26,02:30,0.402,0.241,0.417,0.382,0.367,0.193,0.167,north-northwest,6.1,No
2016/06/26,02:40,0.403,0.241,0.414,0.378,0.366,0.195,0.165,north,5.6,No
2016/06/26,02:50,0.403,0.240,0.418,0.381,0.370,0.194,0.165,north,4.7,No
2016/06/26,03:00,0.401,0.240,0.414,0.380,0.366,0.194,0.166,north-northwest,3.5,No
2016/06/26,03:10,0.404,0.240,0.418,0.382,0.367,0.195,0.166,northwest,1.8,No
2016/06/26,03:20,0.399,0.240,0.415,0.381,0.368,0.195,0.165,north,1.8,No
2016/06/26,03:30,0.404,0.241,0.417,0.377,0.365,0.195,0.166,north-northeast,3.0,No
2016/06/26,03:40,0.404,0.240,0.417,0.382,0.370,0.194,0.166,north-northeast,2.6,No
2016/06/26,03:50,0.401,0.241,0.414,0.378,0.365,0.195,0.165,north,3.9,No
2016/06/26,04:00,0.404,0.241,0.419,0.381,0.368,0.194,0.166,northwest,2.3,No
2016/06/26,04:10,0.401,0.239,0.414,0.380,0.367,0.195,0.165,south-southwest,2.2,No
2016/06/26,04:20,0.404,0.241,0.417,0.380,0.366,0.194,0.167,south-southwest,3.3,No
2016/06/26,04:30,0.402,0.240,0.416,0.381,0.368,0.195,0.166,southeast,4.1,No
2016/06/26,04:40,0.404,0.240,0.415,0.380,0.364,0.195,0.167,south-southeast,4.1,No
2016/06/26,04:50,0.403,0.241,0.417,0.383,0.368,0.195,0.165,southwest,3.4,No
2016/06/26,05:00,0.401,0.240,0.415,0.379,0.366,0.194,0.165,north-northwest,1.4,No
2016/06/26,05:10,0.403,0.240,0.417,0.382,0.365,0.194,0.166,north-northwest,0.7,No
2016/06/26,05:20,0.402,0.240,0.414,0.378,0.369,0.195,0.166,west,1.3,No
2016/06/26,05:30,0.403,0.242,0.417,0.380,0.366,0.195,0.165,west-southwest,2.8,No
2016/06/26,05:40,0.403,0.240,0.415,0.382,0.367,0.195,0.165,west-southwest,1.6,No
2016/06/26,05:50,0.403,0.241,0.416,0.379,0.364,0.194,0.166,west-southwest,1.4,No
2016/06/26,06:00,0.403,0.241,0.417,0.381,0.366,0.195,0.167,south-southwest,0.9,No
2016/06/26,06:10,0.402,0.239,0.417,0.379,0.370,0.194,0.165,south-southwest,1.0,No
2016/06/26,06:20,0.404,0.240,0.418,0.380,0.365,0.195,0.165,south-southeast,2.3,No
2016/06/26,06:30,0.401,0.241,0.415,0.380,0.362,0.194,0.166,south-southwest,1.7,No
2016/06/26,06:40,0.401,0.239,0.417,0.378,0.366,0.193,0.166,west-northwest,3.6,No
2016/06/26,06:50,0.404,0.239,0.418,0.384,0.367,0.194,0.165,west-northwest,5.5,No
2016/06/26,07:00,0.402,0.238,0.414,0.380,0.364,0.194,0.164,west-northwest,7.0,No
2016/06/26,07:10,0.402,0.240,0.415,0.379,0.365,0.195,0.165,west,6.5,No
2016/06/26,07:20,0.404,0.242,0.417,0.381,0.369,0.194,0.167,west-northwest,5.3,No
2016/06/26,07:30,0.401,0.242,0.416,0.378,0.366,0.195,0.167,west,6.4,No
2016/06/26,07:40,0.400,0.240,0.413,0.375,0.364,0.195,0.166,west,2.2,No
2016/06/26,07:50,0.405,0.240,0.412,0.379,0.369,0.193,0.165,west,4.0,No
2016/06/26,08:00,0.404,0.240,0.411,0.383,0.369,0.194,0.166,west-northwest,4.4,No
2016/06/26,08:10,0.401,0.240,0.412,0.381,0.366,0.194,0.164,west,5.1,No
2016/06/26,08:20,0.400,0.239,0.413,0.379,0.365,0.195,0.167,west,6.9,No
2016/06/26,08:30,0.402,0.239,0.414,0.380,0.364,0.195,0.165,west,6.7,No
2016/06/26,08:40,0.405,0.240,0.414,0.379,0.363,0.195,0.166,west-northwest,8.1,No
2016/06/26,08:50,0.403,0.240,0.415,0.379,0.364,0.194,0.167,west,9.1,No
2016/06/26,09:00,0.403,0.241,0.415,0.378,0.364,0.195,0.166,west,7.6,No
2016/06/26,09:10,0.402,0.241,0.415,0.380,0.364,0.196,0.167,west,8.1,No
2016/06/26,09:20,0.402,0.241,0.414,0.381,0.367,0.196,0.166,west,7.8,No
2016/06/26,09:30,0.402,0.241,0.417,0.381,0.367,0.195,0.167,west,6.9,No
2016/06/26,09:40,0.401,0.240,0.417,0.382,0.367,0.196,0.167,west,5.6,No
2016/06/26,09:50,0.401,0.241,0.420,0.381,0.367,0.196,0.168,west,5.0,No
2016/06/26,10:00,0.402,0.241,0.422,0.382,0.367,0.196,0.168,west,5.3,No
2016/06/26,10:10,0.404,0.242,0.420,0.383,0.366,0.197,0.167,west-northwest,6.4,No
2016/06/26,10:20,0.402,0.243,0.419,0.382,0.368,0.197,0.168,west,6.7,No
2016/06/26,10:30,0.401,0.242,0.419,0.383,0.369,0.197,0.168,west-northwest,6.1,No
2016/06/26,10:40,0.402,0.242,0.419,0.382,0.370,0.198,0.167,west,3.9,No
2016/06/26,10:50,0.402,0.242,0.418,0.381,0.368,0.197,0.167,west,4.1,No
2016/06/26,11:00,0.403,0.241,0.418,0.382,0.368,0.197,0.167,west,6.0,No
2016/06/26,11:10,0.403,0.242,0.418,0.382,0.369,0.198,0.167,west,6.7,No
2016/06/26,11:20,0.403,0.241,0.418,0.383,0.368,0.198,0.168,west,5.5,No
2016/06/26,11:30,0.404,0.243,0.421,0.384,0.368,0.197,0.168,west-northwest,7.1,No
2016/06/26,11:40,0.404,0.242,0.419,0.384,0.369,0.196,0.167,west-northwest,9.5,No
2016/06/26,11:50,0.404,0.244,0.419,0.382,0.370,0.196,0.168,west-northwest,6.4,No
2016/06/26,12:00,0.404,0.243,0.418,0.382,0.367,0.197,0.167,west,7.0,No
2016/06/26,12:10,0.404,0.242,0.418,0.382,0.366,0.197,0.167,west,7.0,No
2016/06/26,12:20,0.406,0.242,0.417,0.381,0.367,0.197,0.167,northwest,5.8,No
2016/06/26,12:30,0.404,0.241,0.417,0.381,0.368,0.197,0.168,northwest,5.7,No
2016/06/26,12:40,0.407,0.242,0.418,0.383,0.368,0.197,0.168,west-northwest,4.4,No
2016/06/26,12:50,0.410,0.241,0.418,0.381,0.367,0.196,0.167,west,3.5,No
2016/06/26,13:00,0.410,0.242,0.418,0.383,0.368,0.196,0.168,west,3.7,No
2016/06/26,13:10,0.407,0.241,0.417,0.383,0.369,0.196,0.168,west,6.2,No
2016/06/26,13:20,0.407,0.242,0.418,0.382,0.369,0.198,0.167,west-northwest,2.6,No
2016/06/26,13:30,0.406,0.242,0.419,0.383,0.368,0.198,0.167,west-northwest,4.0,No
2016/06/26,13:40,0.404,0.242,0.419,0.383,0.371,0.198,0.167,west-northwest,6.3,No
2016/06/26,13:50,0.407,0.243,0.420,0.384,0.368,0.197,0.168,west-northwest,3.7,No
2016/06/26,14:00,0.406,0.243,0.420,0.384,0.368,0.196,0.168,northwest,3.6,No
2016/06/26,14:10,0.405,0.242,0.421,0.384,0.372,0.198,0.169,northwest,1.6,No
2016/06/26,14:20,0.407,0.242,0.421,0.385,0.370,0.198,0.168,southeast,2.7,No
2016/06/26,14:30,0.407,0.243,0.419,0.383,0.371,0.198,0.167,south-southeast,4.2,No
2016/06/26,14:40,0.405,0.243,0.419,0.383,0.370,0.198,0.168,south,5.2,No
2016/06/26,14:50,0.404,0.242,0.421,0.383,0.369,0.198,0.167,south,2.9,No
2016/06/26,15:00,0.407,0.241,0.418,0.382,0.367,0.197,0.170,south,3.2,No
2016/06/26,15:10,0.411,0.243,0.417,0.386,0.367,0.199,0.169,south-southwest,3.1,No
2016/06/26,15:20,0.408,0.245,0.423,0.388,0.371,0.198,0.168,south,2.1,No
2016/06/26,15:30,0.406,0.244,0.424,0.385,0.374,0.198,0.169,south,2.0,No
2016/06/26,15:40,0.406,0.242,0.422,0.384,0.371,0.197,0.167,west-northwest,0.8,No
2016/06/26,15:50,0.412,0.243,0.421,0.381,0.371,0.197,0.169,south,2.9,No
2016/06/26,16:00,0.411,0.242,0.420,0.386,0.370,0.197,0.170,south,3.7,No
2016/06/26,16:10,0.409,0.242,0.418,0.389,0.368,0.198,0.169,south,3.3,No
2016/06/26,16:20,0.405,0.242,0.418,0.386,0.368,0.197,0.169,south,5.3,No
2016/06/26,16:30,0.406,0.244,0.424,0.384,0.367,0.198,0.170,south,5.4,No
2016/06/26,16:40,0.409,0.244,0.425,0.386,0.367,0.198,0.169,south,5.5,No
2016/06/26,16:50,0.408,0.242,0.421,0.386,0.374,0.197,0.167,south,4.4,No
2016/06/26,17:00,0.405,0.244,0.420,0.385,0.373,0.197,0.169,south,4.2,No
2016/06/26,17:10,0.408,0.244,0.425,0.384,0.370,0.198,0.170,south,3.7,No
2016/06/26,17:20,0.410,0.241,0.423,0.388,0.367,0.196,0.168,south,1.4,No
2016/06/26,17:30,0.407,0.243,0.421,0.385,0.372,0.197,0.168,south,1.6,No
2016/06/26,17:40,0.408,0.245,0.422,0.382,0.373,0.198,0.170,west,1.7,No
2016/06/26,17:50,0.411,0.243,0.426,0.388,0.369,0.198,0.169,west,2.4,No
2016/06/26,18:00,0.408,0.242,0.422,0.388,0.368,0.196,0.169,west,2.8,No
2016/06/26,18:10,0.405,0.244,0.419,0.384,0.372,0.197,0.170,west,2.5,No
2016/06/26,18:20,0.409,0.243,0.425,0.385,0.372,0.196,0.168,southwest,2.2,No
2016/06/26,18:30,0.409,0.242,0.423,0.388,0.369,0.197,0.169,south-southwest,1.0,No
2016/06/26,18:40,0.408,0.245,0.420,0.382,0.369,0.198,0.170,south-southwest,1.2,No
2016/06/26,18:50,0.407,0.244,0.424,0.387,0.372,0.197,0.167,-,CALM,No
2016/06/26,19:00,0.410,0.243,0.423,0.387,0.370,0.198,0.168,south-southwest,1.5,No
2016/06/26,19:10,0.407,0.245,0.421,0.384,0.371,0.197,0.170,southwest,0.5,No
2016/06/26,19:20,0.408,0.244,0.424,0.388,0.372,0.197,0.168,south-southeast,0.6,No
2016/06/26,19:30,0.410,0.244,0.422,0.385,0.368,0.198,0.170,southeast,1.4,No
2016/06/26,19:40,0.406,0.243,0.422,0.383,0.373,0.197,0.168,-,CALM,No
2016/06/26,19:50,0.408,0.243,0.424,0.389,0.372,0.198,0.169,southwest,2.7,No
2016/06/26,20:00,0.409,0.244,0.420,0.384,0.369,0.198,0.169,northwest,1.4,No
2016/06/26,20:10,0.405,0.243,0.423,0.387,0.373,0.198,0.169,-,CALM,No
2016/06/26,20:20,0.410,0.244,0.425,0.386,0.369,0.198,0.168,south-southwest,1.0,No
2016/06/26,20:30,0.407,0.243,0.421,0.385,0.373,0.197,0.169,south,1.2,No
2016/06/26,20:40,0.409,0.243,0.423,0.388,0.370,0.198,0.170,south,1.0,No
2016/06/26,20:50,0.410,0.245,0.421,0.384,0.371,0.198,0.169,-,CALM,No
2016/06/26,21:00,0.407,0.242,0.424,0.388,0.372,0.198,0.170,south,1.4,No
2016/06/26,21:10,0.410,0.244,0.423,0.386,0.369,0.197,0.168,south,1.0,No
2016/06/26,21:20,0.407,0.244,0.423,0.387,0.371,0.198,0.170,-,CALM,No
2016/06/26,21:30,0.409,0.245,0.424,0.386,0.370,0.198,0.168,south-southwest,0.9,No
2016/06/26,21:40,0.406,0.243,0.421,0.385,0.372,0.199,0.169,west,1.0,No
2016/06/26,21:50,0.410,0.244,0.424,0.388,0.368,0.198,0.169,north-northwest,1.5,No
2016/06/26,22:00,0.408,0.244,0.421,0.385,0.373,0.197,0.169,north,0.7,No
2016/06/26,22:10,0.409,0.243,0.424,0.387,0.371,0.197,0.169,north-northwest,1.9,No
2016/06/26,22:20,0.407,0.244,0.422,0.386,0.371,0.197,0.170,north,1.7,No
2016/06/26,22:30,0.408,0.245,0.423,0.387,0.372,0.199,0.170,east-northeast,2.1,No
2016/06/26,22:40,0.409,0.244,0.423,0.386,0.369,0.197,0.170,northeast,1.7,No
2016/06/26,22:50,0.407,0.242,0.423,0.387,0.371,0.197,0.168,north,1.5,No
2016/06/26,23:00,0.409,0.244,0.424,0.386,0.369,0.197,0.170,north-northwest,1.4,No
2016/06/26,23:10,0.407,0.244,0.422,0.386,0.371,0.197,0.170,north,0.9,Yes
2016/06/26,23:20,0.410,0.244,0.424,0.387,0.368,0.197,0.169,north,1.6,No
2016/06/26,23:30,0.407,0.243,0.422,0.386,0.370,0.198,0.170,north-northeast,2.2,No
2016/06/26,23:40,0.410,0.244,0.424,0.389,0.370,0.198,0.170,northeast,1.6,No
2016/06/26,23:50,0.408,0.243,0.422,0.384,0.371,0.198,0.169,north-northeast,2.2,No
